Location: Filler
(36.7551°N, 30.4456°E)
Time: 07:15:43
(UTC+00:00)

FENGYUN 3A - Pass Details

Date: 22 September 2024
Orbit: 821 x 835 km, 98.6° (Epoch: 12 October)

Event Time Altitude Azimuth Distance (km) Brightness Sun altitude
Rises 23:59:33 0° 15° (NNE) 3,362 7.5 -42.5°
Reaches altitude 10° 00:01:56 10° 18° (NNE) 2,425 6.6 -42.2°
Enters shadow 00:02:52 15° 20° (NNE) 2,065 6.2 -42.1°
